Location: ????????
(60.4333°N, 46.4710°E)
Time: 19:42:02
(UTC+00:00)

YAOGAN 1 - Pass Details

Date: 25 November 2020
Orbit: 618 x 620 km, 97.9° (Epoch: 17 January)

Event Time Altitude Azimuth Distance (km) Brightness Sun altitude
Exits shadow 15:24:34 14° 172° (S) 1,745 4.8 -23.4°
Maximum altitude 15:28:17 70° 255° (WSW) 666 2.8 -23.8°
Drops below altitude 10° 15:32:38 10° 340° (NNW) 2,005 5.4 -24.4°
Sets 15:34:51 0° 343° (NNW) 2,916 6.2 -24.7°
